Content
SEND FEEDBACK

Daily
Averages
Monthly
Summary
United States of America

HAZELWOOD, MISSOURI


Home > North America > United States > Missouri
Elevation: 174 meters     Latitude: 38 45N     Longitude: 090 22W

WEATHER
 
SELECT A DAY
Number of Records: 196,268;   Date Range: 1/1/95 - 7/20/14
 
SHARE

PRINT THIS DATA

[ ← Previous Day ]
WEATHER ALMANAC - 22 FEBRUARY, 2013
[ Next Day → ]
[ °F ]   °C
Weather ElementAverageHighLow
Temperature-0.7 °C2.2 °C (8:54 am)-8.3 °C (11:54 pm)
Dewpoint-4.2 °C-0.6 °C (4:54 am)-11.1 °C (11:54 pm)
Humidity78 %93 % (12:14 am)59 % (5:54 pm)
Barometer1014.2 hPa1020 hPa (9:54 pm)1009.5 hPa (2:30 am)
Wind Speed12.1 km/h29.6 km/h (9:54 am)
Wind Gust40.7 km/h (9:51 am)
Weather ElementAverage
Visibility15.1 km
Wind DirectionS (178.7 °)

Weather ElementTotal
Precipitation---
Heating Degree Days21.4 (Base 18.3)
Averaged from 30 records on 22 February, 2013
WEATHER CONDITIONS BREAKOUT
WIND DIRECTION BREAKOUT
WEATHER BY HOUR - 22 FEBRUARY, 2013
[ °F ]   °C
Local TimeTemperatureDewpointHumidityBarometerVisibilityWind DirectionWind SpeedGust SpeedPrecipitationEventsConditions
12:14 AM0 °C-1 °C93 %1009.8 hPa3.2 kmCalm0 mmSnowLight Snow
12:54 AM0 °C-1.1 °C92 %1010.8 hPa8 kmCalm0 mmOvercast
1:54 AM0 °C-1.7 °C88 %1010.5 hPa14.5 kmCalm0 mmOvercast
2:30 AM0 °C-1 °C93 %1009.5 hPa12.9 kmCalmOvercast
2:54 AM0 °C-1.1 °C92 %1010.2 hPa14.5 kmCalmOvercast
3:54 AM1.1 °C-1.1 °C85 %1010.2 hPa16.1 kmSSW (210°)13 km/hOvercast
4:54 AM1.7 °C-0.6 °C85 %1010.5 hPa16.1 kmSW (220°)11.1 km/hOvercast
5:52 AM2 °C-1 °C81 %1010.2 hPa16.1 kmSW (230°)9.3 km/hOvercast
5:54 AM1.7 °C-1.1 °C82 %1010.8 hPa16.1 kmSW (230°)9.3 km/hOvercast
6:50 AM2 °C-1 °C81 %1011.2 hPa16.1 kmSouth (190°)11.1 km/h0 mmOvercast
6:54 AM1.7 °C-0.6 °C85 %1012.2 hPa16.1 kmSouth (190°)13 km/h0 mmOvercast
7:54 AM1.7 °C-1.1 °C82 %1012.9 hPa16.1 kmSSW (210°)11.1 km/hOvercast
8:54 AM2.2 °C-1.7 °C76 %1013.5 hPa16.1 kmWSW (240°)14.8 km/hOvercast
9:51 AM2 °C-3 °C70 %1013.5 hPa16.1 kmWSW (250°)27.8 km/h40.7 km/hOvercast
9:54 AM1.7 °C-2.8 °C72 %1014.2 hPa16.1 kmWSW (250°)29.6 km/h40.7 km/hOvercast
10:54 AM0.6 °C-3.3 °C75 %1015.6 hPa16.1 kmWSW (250°)29.6 km/h38.9 km/hOvercast
11:54 AM0 °C-3.3 °C79 %1015.9 hPa16.1 kmWest (270°)22.2 km/hOvercast
12:54 PM0 °C-3.9 °C75 %1015.9 hPa16.1 kmWest (260°)22.2 km/hOvercast
1:54 PM0 °C-5 °C69 %1016.3 hPa16.1 kmWest (260°)20.4 km/hOvercast
2:05 PM0 °C-5 °C69 %1015.2 hPa16.1 kmWSW (250°)22.2 km/hOvercast
2:54 PM0 °C-5.6 °C66 %1016.6 hPa16.1 kmWest (260°)20.4 km/hOvercast
3:54 PM0.6 °C-6.1 °C61 %1016.6 hPa16.1 kmWest (270°)20.4 km/hMostly Cloudy
4:54 PM0 °C-6.7 °C61 %1016.6 hPa16.1 kmWest (270°)16.7 km/hPartly Cloudy
5:54 PM-0.6 °C-7.8 °C59 %1017.3 hPa16.1 kmWest (280°)18.5 km/hClear
6:54 PM-3.3 °C-8.3 °C69 %1017.9 hPa16.1 kmWest (270°)7.4 km/hClear
7:54 PM-5.6 °C-10 °C72 %1018.3 hPa16.1 kmWest (280°)7.4 km/hClear
8:54 PM-6.7 °C-10 °C78 %1019 hPa16.1 kmCalmClear
9:54 PM-7.8 °C-10 °C84 %1020 hPa16.1 kmCalmClear
10:54 PM-7.8 °C-10 °C84 %1020 hPa16.1 kmSW (220°)5.6 km/hClear
11:54 PM-8.3 °C-11.1 °C81 %1019.3 hPa16.1 kmCalmClear
Hourly data recorded from KSUS, located 0 kilometers away from Hazelwood, Missouri







STORIES FROM OUR PARTNERS